When you browse on this site, cookies collect data to enhance your experience and personalize the content and advertising you see.
Visit our Privacy Policy to learn more. By continuing to use the site, you agree to this use of cookies and data.
  • In Lithuania
  • List of Countries
  • For 7 days
  • Water Temperature
  • Satellite Maps
  • Weather Map
  • Weather Widgets
  • user-avatar
    Login

    Hourly Weather Tucupita

    Today, 20 January, Sunday

    Time Temperature Precipitation Wind Pressure Humidity
    00:00 +23°C° 0 mm 1 mps 760 mmHg 92%
    01:00 +23°C° 0 mm 1 mps 760 mmHg 94%
    02:00 +23°C° 0 mm 1 mps 760 mmHg 97%
    03:00 +23°C° 0 mm 1 mps 760 mmHg 97%
    04:00 +23°C° 0 mm 1 mps 760 mmHg 98%
    05:00 +21°C° 0 mm 0 mps 760 mmHg 98%
    06:00 +24°C° 0 mm 1 mps 760 mmHg 93%
    07:00 +25°C° 0 mm 1 mps 760 mmHg 88%
    08:00 +26°C° 0 mm 1 mps 761 mmHg 83%
    09:00 +28°C° 0 mm 1 mps 761 mmHg 73%
    10:00 +31°C° 0 mm 2 mps 761 mmHg 63%
    11:00 +34°C° 0 mm 2 mps 761 mmHg 53%
    12:00 +34°C° 0 mm 2 mps 760 mmHg 52%
    13:00 +34°C° 0 mm 2 mps 759 mmHg 50%
    14:00 +35°C° 0 mm 2 mps 759 mmHg 49%
    15:00 +34°C° 0 mm 2 mps 758 mmHg 52%
    16:00 +32°C° 0 mm 2 mps 758 mmHg 54%
    17:00 +32°C° 0 mm 2 mps 757 mmHg 57%
    18:00 +30°C° 0 mm 2 mps 758 mmHg 64%
    19:00 +29°C° 0 mm 2 mps 758 mmHg 71%
    20:00 +27°C° 0 mm 2 mps 759 mmHg 77%
    21:00 +26°C° 0 mm 2 mps 759 mmHg 82%
    22:00 +26°C° 0 mm 2 mps 760 mmHg 87%
    23:00 +25°C° 0 mm 1 mps 760 mmHg 91%

    Tomorrow, 21 January, Monday

    Time Temperature Precipitation Wind Pressure Humidity
    00:00 +24°C° 0 mm 1 mps 760 mmHg 94%
    01:00 +24°C° 0 mm 1 mps 760 mmHg 96%
    02:00 +24°C° 0 mm 1 mps 760 mmHg 98%
    03:00 +23°C° 0.1 mm 1 mps 760 mmHg 98%
    04:00 +23°C° 0.1 mm 1 mps 760 mmHg 98%
    05:00 +21°C° 0.1 mm 0 mps 760 mmHg 98%
    06:00 +24°C° 0 mm 1 mps 760 mmHg 95%
    07:00 +25°C° 0 mm 1 mps 761 mmHg 92%
    08:00 +26°C° 0 mm 1 mps 761 mmHg 88%
    09:00 +28°C° 0 mm 2 mps 761 mmHg 77%
    10:00 +30°C° 0 mm 2 mps 761 mmHg 66%
    11:00 +32°C° 0 mm 2 mps 762 mmHg 54%
    12:00 +34°C° 0.1 mm 2 mps 761 mmHg 52%
    13:00 +35°C° 0.1 mm 2 mps 760 mmHg 49%
    14:00 +35°C° 0.1 mm 3 mps 759 mmHg 47%
    15:00 +35°C° 0 mm 3 mps 758 mmHg 49%
    16:00 +34°C° 0 mm 3 mps 758 mmHg 51%
    17:00 +34°C° 0 mm 2 mps 758 mmHg 53%
    18:00 +31°C° 0 mm 2 mps 758 mmHg 60%
    19:00 +29°C° 0 mm 2 mps 759 mmHg 67%
    20:00 +27°C° 0 mm 2 mps 760 mmHg 73%
    21:00 +26°C° 0 mm 2 mps 760 mmHg 80%
    22:00 +25°C° 0 mm 2 mps 760 mmHg 86%
    23:00 +25°C° 0 mm 1 mps 761 mmHg 92%

    Day after tomorrow, 22 January, Tuesday

    Time Temperature Precipitation Wind Pressure Humidity
    00:00 +24°C° 0 mm 1 mps 761 mmHg 94%
    01:00 +24°C° 0 mm 1 mps 760 mmHg 96%
    02:00 +23°C° 0 mm 1 mps 760 mmHg 98%
    03:00 +23°C° 0 mm 1 mps 760 mmHg 98%
    04:00 +23°C° 0 mm 1 mps 760 mmHg 98%
    05:00 +23°C° 0 mm 1 mps 760 mmHg 99%
    06:00 +24°C° 0.1 mm 1 mps 760 mmHg 95%
    07:00 +25°C° 0.1 mm 1 mps 761 mmHg 90%
    08:00 +26°C° 0.1 mm 2 mps 761 mmHg 86%
    09:00 +27°C° 0.3 mm 2 mps 761 mmHg 80%
    10:00 +29°C° 0.3 mm 2 mps 761 mmHg 73%
    11:00 +30°C° 0.3 mm 3 mps 762 mmHg 66%
    12:00 +30°C° 0.4 mm 3 mps 761 mmHg 67%
    13:00 +30°C° 0.4 mm 2 mps 760 mmHg 67%
    14:00 +30°C° 0.4 mm 2 mps 759 mmHg 67%
    15:00 +30°C° 0 mm 2 mps 759 mmHg 63%
    16:00 +31°C° 0 mm 2 mps 758 mmHg 60%
    17:00 +31°C° 0 mm 3 mps 758 mmHg 56%
    18:00 +30°C° 0 mm 2 mps 759 mmHg 62%
    19:00 +28°C° 0 mm 2 mps 759 mmHg 69%
    20:00 +27°C° 0 mm 2 mps 760 mmHg 75%
    21:00 +26°C° 0 mm 2 mps 760 mmHg 80%
    22:00 +25°C° 0 mm 1 mps 761 mmHg 86%
    23:00 +24°C° 0 mm 1 mps 761 mmHg 91%

    23 January, Wednesday

    Time Temperature Precipitation Wind Pressure Humidity
    00:00 +24°C° 0 mm 1 mps 761 mmHg 93%
    01:00 +24°C° 0 mm 1 mps 760 mmHg 95%
    02:00 +23°C° 0 mm 1 mps 760 mmHg 98%
    03:00 +23°C° 0.1 mm 1 mps 760 mmHg 97%
    04:00 +23°C° 0.1 mm 1 mps 760 mmHg 97%
    05:00 +23°C° 0.1 mm 1 mps 760 mmHg 97%
    06:00 +24°C° 0 mm 1 mps 761 mmHg 94%
    07:00 +25°C° 0 mm 1 mps 761 mmHg 91%
    08:00 +25°C° 0 mm 1 mps 762 mmHg 87%
    09:00 +28°C° 0 mm 2 mps 762 mmHg 75%
    10:00 +30°C° 0 mm 2 mps 762 mmHg 64%
    11:00 +33°C° 0 mm 3 mps 762 mmHg 52%
    12:00 +32°C° 0 mm 2 mps 761 mmHg 51%
    13:00 +32°C° 0 mm 2 mps 760 mmHg 51%
    14:00 +32°C° 0 mm 2 mps 759 mmHg 51%
    15:00 +31°C° 0.2 mm 2 mps 759 mmHg 56%
    16:00 +30°C° 0.2 mm 2 mps 758 mmHg 62%
    17:00 +30°C° 0.2 mm 2 mps 758 mmHg 67%
    18:00 +28°C° 0.1 mm 2 mps 759 mmHg 74%
    19:00 +26°C° 0.1 mm 2 mps 759 mmHg 81%
    20:00 +25°C° 0.1 mm 2 mps 760 mmHg 88%
    21:00 +24°C° 0 mm 1 mps 760 mmHg 90%
    22:00 +24°C° 0 mm 1 mps 760 mmHg 92%
    23:00 +24°C° 0 mm 1 mps 761 mmHg 95%

    24 January, Thursday

    Time Temperature Precipitation Wind Pressure Humidity
    00:00 +23°C° 0 mm 1 mps 760 mmHg 96%
    01:00 +23°C° 0 mm 1 mps 760 mmHg 96%
    02:00 +23°C° 0 mm 1 mps 760 mmHg 97%
    03:00 +23°C° 0 mm 1 mps 760 mmHg 97%
    04:00 +22°C° 0 mm 1 mps 760 mmHg 98%
    05:00 +22°C° 0 mm 1 mps 759 mmHg 98%
    06:00 +23°C° 0 mm 1 mps 760 mmHg 94%
    07:00 +24°C° 0 mm 1 mps 760 mmHg 90%
    08:00 +25°C° 0 mm 1 mps 761 mmHg 86%
    09:00 +28°C° 0 mm 2 mps 761 mmHg 74%
    10:00 +30°C° 0 mm 2 mps 761 mmHg 63%
    11:00 +33°C° 0 mm 3 mps 761 mmHg 51%
    12:00 +33°C° 0.1 mm 3 mps 760 mmHg 51%
    13:00 +33°C° 0.1 mm 3 mps 759 mmHg 51%
    14:00 +33°C° 0.1 mm 3 mps 758 mmHg 50%
    15:00 +33°C° 0 mm 3 mps 758 mmHg 53%
    16:00 +31°C° 0 mm 2 mps 758 mmHg 57%
    17:00 +30°C° 0 mm 2 mps 758 mmHg 60%
    18:00 +28°C° 0 mm 2 mps 758 mmHg 66%
    19:00 +27°C° 0 mm 2 mps 759 mmHg 72%
    20:00 +26°C° 0 mm 2 mps 759 mmHg 79%
    21:00 +25°C° 0 mm 1 mps 760 mmHg 83%
    22:00 +24°C° 0 mm 1 mps 760 mmHg 88%
    23:00 +23°C° 0 mm 1 mps 760 mmHg 93%

    25 January, Friday

    Time Temperature Precipitation Wind Pressure Humidity
    00:00 +23°C° 0 mm 1 mps 760 mmHg 94%
    01:00 +23°C° 0 mm 1 mps 760 mmHg 96%
    02:00 +22°C° 0 mm 1 mps 760 mmHg 98%
    03:00 +20°C° 0 mm 0 mps 760 mmHg 98%
    04:00 +20°C° 0 mm 0 mps 759 mmHg 98%
    05:00 +20°C° 0 mm 0 mps 759 mmHg 98%
    06:00 +21°C° 0 mm 0 mps 760 mmHg 93%
    07:00 +24°C° 0 mm 1 mps 760 mmHg 88%
    08:00 +25°C° 0 mm 1 mps 761 mmHg 83%
    09:00 +27°C° 0 mm 1 mps 761 mmHg 73%
    10:00 +30°C° 0 mm 2 mps 761 mmHg 64%
    11:00 +32°C° 0 mm 2 mps 761 mmHg 54%
    12:00 +32°C° 0 mm 2 mps 760 mmHg 51%
    13:00 +34°C° 0 mm 2 mps 759 mmHg 48%
    14:00 +35°C° 0 mm 2 mps 758 mmHg 45%
    15:00 +34°C° 0 mm 2 mps 758 mmHg 49%
    16:00 +32°C° 0 mm 2 mps 758 mmHg 53%
    17:00 +31°C° 0 mm 2 mps 757 mmHg 57%
    18:00 +29°C° 0 mm 2 mps 758 mmHg 64%
    19:00 +28°C° 0 mm 2 mps 758 mmHg 71%
    20:00 +26°C° 0 mm 2 mps 759 mmHg 78%
    21:00 +25°C° 0 mm 2 mps 759 mmHg 83%
    22:00 +25°C° 0 mm 2 mps 759 mmHg 88%
    23:00 +24°C° 0 mm 1 mps 760 mmHg 93%
    Show more